Amateur Radio Satellites - All Passes

Search period start: 24 May 2013 19:39
Search period end: 25 May 2013 19:39
Location: Weatherford, 35.5260°N, 98.7070°W

Satellite Date Start Highest point End Downlink Frequencies (MHz)
Time Altitude Azimuth
SO-67 24 May 19:41:21 19:43:17 14° 69° (ENE) 19:45:14 435.3500 MHz FM
RS-15 24 May 19:44:12 19:53:09 24° 325° (NW) 20:01:53 29.354 - 29.394 USB, Beacon 29.352 USB
AO-7 24 May 19:52:11 19:55:15 12° 270° (W) 19:58:20 29.400 - 29.500 MHz
JAS-1B 24 May 20:02:57 20:11:58 58° 72° (ENE) 20:19:40 435.800 - 435.900 CW/SSB
STRAND 1 24 May 20:03:59 20:09:09 89° 104° (ESE) 20:14:19 ?
Hamsat 24 May 20:16:16 20:20:21 52° 260° (W) 20:24:30 145.90 MHz
JAS-2 24 May 20:31:45 20:31:54 10° 54° (NE) 20:32:03 435.800 - 435.900 CW/SSB, 435.910 FM
SO-67 24 May 21:13:24 21:16:29 27° 263° (W) 21:19:35 435.3500 MHz FM
UOSAT-12 24 May 21:14:07 21:18:43 74° 243° (WSW) 21:23:17 437.025 FM, 437.400 FM
HO-68 24 May 21:23:41 21:30:05 37° 66° (ENE) 21:36:29 435.675 MHz FM
KITSAT 1 24 May 21:37:48 21:41:57 15° 100° (E) 21:46:06 435.175 FM
JAS-1B 24 May 21:54:47 22:02:32 30° 263° (W) 22:09:29 435.800 - 435.900 CW/SSB
RS-15 24 May 22:07:38 22:11:58 12° 2° (N) 22:16:13 29.354 - 29.394 USB, Beacon 29.352 USB
JAS-2 24 May 22:07:47 22:15:17 57° 71° (ENE) 22:22:55 435.800 - 435.900 CW/SSB, 435.910 FM
Oscar 11 24 May 22:19:47 22:23:54 46° 74° (ENE) 22:28:03 145.825 FM, Beacon 2401.500 USB
OPAL 24 May 22:21:35 22:25:59 29° 67° (ENE) 22:30:22 ?
HO-68 24 May 23:11:11 23:17:39 37° 261° (W) 23:24:11 435.675 MHz FM
KITSAT 1 24 May 23:28:08 23:36:12 90° 106° (ESE) 23:44:20 435.175 FM
JAS-2 24 May 23:54:11 00:00:30 28° 267° (W) 00:06:59 435.800 - 435.900 CW/SSB, 435.910 FM
Oscar 11 24 May 23:58:30 00:00:21 13° 268° (W) 00:02:12 145.825 FM, Beacon 2401.500 USB
OPAL 25 May 00:00:13 00:04:45 30° 261° (W) 00:09:17 ?
RS-15 25 May 00:21:10 00:30:14 27° 38° (NE) 00:39:03 29.354 - 29.394 USB, Beacon 29.352 USB
MaSat-1 25 May 01:02:12 01:08:05 28° 106° (ESE) 01:13:14 437.345 MHz
KITSAT 1 25 May 01:26:55 01:32:41 21° 317° (NW) 01:38:29 435.175 FM
AO-40 25 May 01:42:18 02:51:45 13° 112° (ESE) 03:41:39 Beacon 2401.320
Oscar 19 25 May 02:05:41 02:06:19 10° 90° (E) 02:06:57 437.125 CW, 437.150 USB
ISS 25 May 02:13:48 02:17:04 70° 136° (SE) 02:20:22 145.800 FM
RS-15 25 May 02:33:01 02:44:07 87° 243° (WSW) 02:55:00 29.354 - 29.394 USB, Beacon 29.352 USB
Oscar 16 25 May 02:41:59 02:46:37 32° 97° (E) 02:51:11 437.025 USB, Beacon 2401.1428
MaSat-1 25 May 02:43:15 02:50:05 49° 296° (WNW) 02:55:46 437.345 MHz
AO-27 25 May 02:56:34 03:01:15 33° 97° (E) 03:05:54 436.795 MHz FM
ITAMSAT 1 25 May 03:02:30 03:07:19 36° 98° (E) 03:12:06 435.822 SSB
AO-Echo 25 May 03:26:37 03:30:04 19° 95° (E) 03:33:33 ?
Oscar 19 25 May 03:41:00 03:46:10 75° 285° (WNW) 03:51:16 437.125 CW, 437.150 USB
Uribyol 2 25 May 03:42:39 03:47:54 84° 284° (WNW) 03:53:08 436.500 FM
ISS 25 May 03:52:07 03:54:06 15° 333° (NNW) 03:56:06 145.800 FM
Oscar 16 25 May 04:21:35 04:25:48 26° 292° (WNW) 04:29:59 437.025 USB, Beacon 2401.1428
AO-27 25 May 04:36:18 04:40:36 27° 292° (WNW) 04:44:54 436.795 MHz FM
ITAMSAT 1 25 May 04:42:28 04:46:35 24° 293° (WNW) 04:50:41 435.822 SSB
RS-15 25 May 04:48:33 04:54:43 17° 261° (W) 05:00:53 29.354 - 29.394 USB, Beacon 29.352 USB
TMSAT-1 25 May 04:50:57 04:55:40 32° 97° (E) 05:00:21 436.925 FM
Saudisat 1A 25 May 04:57:56 05:01:38 25° 111° (ESE) 05:05:23 436.775 MHz
Uosat F 25 May 04:59:10 05:04:12 73° 103° (ESE) 05:09:13 435.120 FM
AO-Echo 25 May 05:04:32 05:08:56 37° 288° (WNW) 05:13:25 ?
Gurwin Techsat 1B 25 May 05:13:51 05:19:12 83° 103° (ESE) 05:24:31 435.225 FM
Oscar 10/S400 25 May 05:45:17 08:57:21 67° 236° (SW) 16:15:48 145.825 - 145.975 CW/USB, Beacon 145.810 USB
AO-7 25 May 05:58:23 06:06:15 43° 100° (E) 06:14:03 29.400 - 29.500 MHz
Sapphire 25 May 06:07:05 06:07:38 10° 102° (ESE) 06:08:10 437.095 MHz 1200 baud AX-25 AFSK
TMSAT-1 25 May 06:31:01 06:35:27 28° 292° (WNW) 06:39:53 436.925 FM
Saudisat 1A 25 May 06:37:09 06:41:11 31° 307° (NW) 06:45:17 436.775 MHz
Uosat F 25 May 06:40:37 06:42:21 12° 298° (WNW) 06:44:06 435.120 FM
Gurwin Techsat 1B 25 May 06:56:58 06:58:25 11° 298° (WNW) 06:59:51 435.225 FM
PCSat 25 May 07:11:58 07:17:11 52° 112° (ESE) 07:22:26 145.825 MHz
STRAND 1 25 May 07:17:03 07:22:08 86° 256° (WSW) 07:27:16 ?
KITSAT 1 25 May 07:25:22 07:32:08 28° 48° (NE) 07:38:52 435.175 FM
Sapphire 25 May 07:44:52 07:50:15 83° 296° (WNW) 07:55:42 437.095 MHz 1200 baud AX-25 AFSK
AO-7 25 May 07:51:19 07:58:51 39° 297° (WNW) 08:06:23 29.400 - 29.500 MHz
JAS-1B 25 May 07:56:25 07:57:48 11° 90° (E) 07:59:10 435.800 - 435.900 CW/SSB
Hamsat 25 May 08:05:51 08:09:51 34° 97° (E) 08:13:50 145.90 MHz
SO-50 25 May 08:37:26 08:42:13 72° 118° (ESE) 08:46:58 436.795 FM
SO-67 25 May 08:43:00 08:46:04 26° 97° (E) 08:49:06 435.3500 MHz FM
ISS 25 May 08:45:16 08:48:05 24° 33° (NNE) 08:50:53 145.800 FM
PCSat 25 May 08:56:55 09:00:54 21° 309° (NW) 09:04:56 145.825 MHz
KITSAT 1 25 May 09:20:04 09:28:06 66° 247° (WSW) 09:36:05 435.175 FM
Sapphire 25 May 09:32:33 09:34:31 12° 315° (NW) 09:36:30 437.095 MHz 1200 baud AX-25 AFSK
Hamsat 25 May 09:42:40 09:45:38 18° 292° (WNW) 09:48:37 145.90 MHz
JAS-1B 25 May 09:43:22 09:49:12 70° 286° (WNW) 09:54:49 435.800 - 435.900 CW/SSB
Oscar 11 25 May 10:13:27 10:14:28 11° 92° (E) 10:15:28 145.825 FM, Beacon 2401.500 USB
SO-67 25 May 10:17:11 10:19:17 15° 290° (WNW) 10:21:22 435.3500 MHz FM
SO-50 25 May 10:20:46 10:23:19 14° 314° (NW) 10:25:52 436.795 FM
ISS 25 May 10:21:48 10:24:48 31° 228° (SW) 10:27:48 145.800 FM
HO-68 25 May 10:41:22 10:48:18 50° 101° (E) 10:55:12 435.675 MHz FM
PANSAT 25 May 11:04:20 11:07:14 20° 167° (SSE) 11:10:09 not established
JAS-2 25 May 11:07:08 11:13:42 61° 100° (E) 11:19:26 435.800 - 435.900 CW/SSB, 435.910 FM
UOSAT-12 25 May 11:22:39 11:27:06 69° 117° (ESE) 11:31:37 437.025 FM, 437.400 FM
MaSat-1 25 May 11:32:18 11:34:57 26° 60° (ENE) 11:37:16 437.345 MHz
Oscar 11 25 May 11:46:42 11:50:58 55° 285° (WNW) 11:55:14 145.825 FM, Beacon 2401.500 USB
OPAL 25 May 12:12:33 12:17:34 88° 286° (WNW) 12:22:30 ?
HO-68 25 May 12:29:44 12:35:36 28° 297° (WNW) 12:41:29 435.675 MHz FM
PANSAT 25 May 12:43:45 12:47:09 29° 179° (S) 12:50:32 not established
JAS-2 25 May 12:53:31 12:57:59 20° 300° (WNW) 13:02:08 435.800 - 435.900 CW/SSB, 435.910 FM
UOSAT-12 25 May 13:05:29 13:07:45 14° 314° (NW) 13:10:01 437.025 FM, 437.400 FM
Oscar 19 25 May 13:19:06 13:21:19 13° 63° (ENE) 13:23:31 437.125 CW, 437.150 USB
Uribyol 2 25 May 13:22:14 13:24:01 12° 62° (ENE) 13:25:48 436.500 FM
Saudisat 1A 25 May 13:29:35 13:30:59 11° 43° (NE) 13:32:21 436.775 MHz
Oscar 16 25 May 13:56:07 14:00:48 36° 70° (ENE) 14:05:30 437.025 USB, Beacon 2401.1428
AO-27 25 May 14:11:58 14:16:40 37° 70° (ENE) 14:21:24 436.795 MHz FM
ITAMSAT 1 25 May 14:17:44 14:22:33 41° 71° (ENE) 14:27:23 435.822 SSB
PANSAT 25 May 14:24:02 14:27:04 22° 192° (SSW) 14:30:05 not established
AO-Echo 25 May 14:37:29 14:40:49 19° 67° (ENE) 14:44:07 ?
RS-15 25 May 14:44:38 14:51:45 18° 99° (E) 14:58:42 29.354 - 29.394 USB, Beacon 29.352 USB
Oscar 19 25 May 14:54:50 15:00:01 71° 258° (WSW) 15:05:13 437.125 CW, 437.150 USB
Gurwin Techsat 1B 25 May 14:56:55 14:58:06 11° 61° (ENE) 14:59:17 435.225 FM
Uribyol 2 25 May 14:57:38 15:02:48 77° 257° (WSW) 15:08:01 436.500 FM
Saudisat 1A 25 May 15:06:46 15:11:19 87° 241° (WSW) 15:15:45 436.775 MHz
Oscar 16 25 May 15:36:04 15:40:11 24° 265° (W) 15:44:19 437.025 USB, Beacon 2401.1428
AO-27 25 May 15:52:14 15:56:14 23° 265° (W) 16:00:17 436.795 MHz FM
ITAMSAT 1 25 May 15:58:24 16:02:10 20° 266° (W) 16:05:58 435.822 SSB
PCSat 25 May 16:03:31 16:07:50 24° 53° (NE) 16:12:08 145.825 MHz
TMSAT-1 25 May 16:08:53 16:13:42 37° 71° (ENE) 16:18:32 436.925 FM
Uosat F 25 May 16:09:34 16:14:32 73° 75° (ENE) 16:19:32 435.120 FM
AO-Echo 25 May 16:14:49 16:19:20 39° 261° (W) 16:23:47 ?
Gurwin Techsat 1B 25 May 16:31:59 16:37:18 85° 257° (WSW) 16:42:38 435.225 FM
Sapphire 25 May 16:36:06 16:41:14 41° 58° (ENE) 16:46:20 437.095 MHz 1200 baud AX-25 AFSK
RS-15 25 May 16:50:23 17:02:32 84° 117° (ESE) 17:14:12 29.354 - 29.394 USB, Beacon 29.352 USB
AO-7 25 May 16:54:06 17:01:49 45° 65° (ENE) 17:09:34 29.400 - 29.500 MHz
SO-50 25 May 17:13:00 17:16:55 28° 52° (NE) 17:20:46 436.795 FM
PCSat 25 May 17:46:18 17:51:26 44° 249° (WSW) 17:56:32 145.825 MHz
TMSAT-1 25 May 17:49:32 17:53:41 23° 265° (W) 17:57:52 436.925 FM
Uosat F 25 May 17:53:31 17:53:48 10° 269° (W) 17:54:04 435.120 FM
Sapphire 25 May 18:20:10 18:24:22 23° 254° (WSW) 18:28:32 437.095 MHz 1200 baud AX-25 AFSK
JAS-1B 25 May 18:37:16 18:41:21 14° 60° (ENE) 18:45:10 435.800 - 435.900 CW/SSB
AO-7 25 May 18:47:11 18:54:37 37° 261° (W) 19:02:07 29.400 - 29.500 MHz
SO-50 25 May 18:53:39 18:57:25 26° 248° (WSW) 19:01:09 436.795 FM
Hamsat 25 May 18:58:11 19:00:59 18° 68° (ENE) 19:03:48 145.90 MHz
RS-15 25 May 19:06:24 19:16:21 30° 320° (NW) 19:26:00 29.354 - 29.394 USB, Beacon 29.352 USB

Developed and maintained by Chris Peat, Heavens-Above GmbH. Please read the updated FAQ before sending e-mail. Imprint. DLR
